| time (UTC) | temp F | wind direction | speed MPH | gust MPH | rain 1hr in | rain 24hr in | rain mn in | humidity % | barometer mb |
| 20260506150641 | 49 | 315 | 13.0 | 17.0 | 0.00 | 0.00 | 0.00 | 42 | 1017.0 |
| 20260506150138 | 49 | 319 | 13.0 | 15.0 | 0.00 | 0.00 | 0.00 | 43 | 1017.0 |
| 20260506145635 | 48 | 35 | 9.0 | 10.0 | 0.00 | 0.00 | 0.00 | 44 | 1017.1 |
| 20260506145131 | 48 | 332 | 10.0 | 11.0 | 0.00 | 0.00 | 0.00 | 45 | 1017.1 |
| 20260506144629 | 47 | 325 | 11.0 | 13.0 | 0.00 | 0.00 | 0.00 | 46 | 1016.9 |
| 20260506144125 | 48 | 316 | 10.0 | 14.0 | 0.00 | 0.00 | 0.00 | 45 | 1016.8 |
| 20260506143623 | 48 | 326 | 14.0 | 18.0 | 0.00 | 0.00 | 0.00 | 45 | 1016.9 |
| 20260506143121 | 48 | 5 | 5.0 | 7.0 | 0.00 | 0.00 | 0.00 | 46 | 1016.9 |
| 20260506142619 | 48 | 327 | 7.0 | 10.0 | 0.00 | 0.00 | 0.00 | 45 | 1017.1 |
| 20260506142117 | 48 | 316 | 10.0 | 11.0 | 0.00 | 0.00 | 0.00 | 45 | 1016.9 |
| 20260506141614 | 48 | 282 | 3.0 | 6.0 | 0.00 | 0.00 | 0.00 | 46 | 1017.2 |
| 20260506141112 | 48 | 316 | 4.0 | 6.0 | 0.00 | 0.00 | 0.00 | 48 | 1017.0 |
| 20260506140610 | 47 | 315 | 6.0 | 8.0 | 0.00 | 0.00 | 0.00 | 49 | 1016.9 |
| 20260506140107 | 46 | 318 | 8.0 | 9.0 | 0.00 | 0.00 | 0.00 | 49 | 1017.1 |
| 20260506135603 | 46 | 264 | 5.0 | 8.0 | 0.00 | 0.00 | 0.00 | 51 | 1017.0 |
| 20260506135059 | 46 | 299 | 10.0 | 11.0 | 0.00 | 0.00 | 0.00 | 51 | 1017.1 |
| 20260506134556 | 46 | 331 | 4.0 | 4.0 | 0.00 | 0.00 | 0.00 | 52 | 1017.1 |
| 20260506134052 | 46 | 331 | 4.0 | 7.0 | 0.00 | 0.00 | 0.00 | 53 | 1017.0 |
| 20260506133549 | 45 | 293 | 4.0 | 6.0 | 0.00 | 0.00 | 0.00 | 53 | 1016.7 |
| 20260506133046 | 45 | 281 | 11.0 | 14.0 | 0.00 | 0.00 | 0.00 | 53 | 1016.8 |
| 20260506132544 | 45 | 307 | 7.0 | 8.0 | 0.00 | 0.00 | 0.00 | 55 | 1016.7 |
| 20260506132041 | 45 | 308 | 9.0 | 10.0 | 0.00 | 0.00 | 0.00 | 54 | 1016.7 |
| 20260506131538 | 46 | 339 | 3.0 | 4.0 | 0.00 | 0.00 | 0.00 | 54 | 1016.7 |
| 20260506131034 | 45 | 344 | 3.0 | 4.0 | 0.00 | 0.00 | 0.00 | 54 | 1016.7 |
| 20260506130531 | 45 | 310 | 8.0 | 10.0 | 0.00 | 0.00 | 0.00 | 53 | 1016.5 |
| 20260506130029 | 45 | 317 | 6.0 | 9.0 | 0.00 | 0.00 | 0.00 | 54 | 1016.3 |
| 20260506125527 | 45 | 347 | 2.0 | 3.0 | 0.00 | 0.00 | 0.00 | 55 | 1016.5 |
| 20260506125024 | 44 | 297 | 7.0 | 8.0 | 0.00 | 0.00 | 0.00 | 55 | 1016.3 |
| 20260506124522 | 44 | 319 | 7.0 | 8.0 | 0.00 | 0.00 | 0.00 | 56 | 1016.4 |
| 20260506124020 | 44 | 351 | 5.0 | 6.0 | 0.00 | 0.00 | 0.00 | 56 | 1016.3 |
| 20260506123517 | 44 | 298 | 6.0 | 8.0 | 0.00 | 0.00 | 0.00 | 56 | 1016.3 |
| 20260506123015 | 43 | 351 | 4.0 | 6.0 | 0.00 | 0.00 | 0.00 | 58 | 1016.2 |
| 20260506122512 | 43 | 279 | 5.0 | 7.0 | 0.00 | 0.00 | 0.00 | 58 | 1016.1 |
| 20260506122010 | 42 | 334 | 6.0 | 8.0 | 0.00 | 0.00 | 0.00 | 59 | 1016.1 |
| 20260506121507 | 42 | 337 | 6.0 | 7.0 | 0.00 | 0.00 | 0.00 | 61 | 1016.0 |
| 20260506121003 | 42 | 355 | 3.0 | 4.0 | 0.00 | 0.00 | 0.00 | 63 | 1015.9 |
| 20260506120501 | 41 | 337 | 3.0 | 3.0 | 0.00 | 0.00 | 0.00 | 63 | 1015.9 |
| 20260506115958 | 41 | 1 | 6.0 | 7.0 | 0.00 | 0.00 | 0.00 | 63 | 1015.8 |
| 20260506115456 | 41 | 321 | 5.0 | 6.0 | 0.00 | 0.00 | 0.00 | 63 | 1015.5 |
| 20260506114954 | 41 | 349 | 6.0 | 7.0 | 0.00 | 0.00 | 0.00 | 64 | 1015.5 |
| 20260506114451 | 41 | 320 | 4.0 | 4.0 | 0.00 | 0.00 | 0.00 | 64 | 1015.2 |
| 20260506113950 | 40 | 357 | 4.0 | 4.0 | 0.00 | 0.00 | 0.00 | 65 | 1015.0 |
| 20260506113447 | 40 | 326 | 3.0 | 3.0 | 0.00 | 0.00 | 0.00 | 66 | 1015.1 |
| 20260506112943 | 40 | 318 | 2.0 | 3.0 | 0.00 | 0.00 | 0.00 | 66 | 1015.0 |
| 20260506112441 | 39 | 20 | 5.0 | 6.0 | 0.00 | 0.00 | 0.00 | 67 | 1014.9 |
| 20260506111938 | 39 | 336 | 3.0 | 3.0 | 0.00 | 0.00 | 0.00 | 68 | 1014.9 |
| 20260506111437 | 39 | 14 | 2.0 | 3.0 | 0.00 | 0.00 | 0.00 | 69 | 1015.0 |
| 20260506110933 | 38 | 331 | 3.0 | 4.0 | 0.00 | 0.00 | 0.00 | 71 | 1015.0 |
| 20260506110431 | 38 | 339 | 2.0 | 2.0 | 0.00 | 0.00 | 0.00 | 73 | 1014.9 |
| 20260506105927 | 38 | 328 | 2.0 | 2.0 | 0.00 | 0.00 | 0.00 | 74 | 1014.9 |
| 20260506105424 | 38 | 315 | 1.0 | 1.0 | 0.00 | 0.00 | 0.00 | 74 | 1014.7 |
| 20260506104921 | 38 | 324 | 2.0 | 2.0 | 0.00 | 0.00 | 0.00 | 74 | 1014.7 |
| 20260506104419 | 37 | 310 | 2.0 | 2.0 | 0.00 | 0.00 | 0.00 | 74 | 1014.7 |
| 20260506103917 | 37 | 325 | 1.0 | 1.0 | 0.00 | 0.00 | 0.00 | 76 | 1014.7 |
| 20260506103414 | 37 | 332 | 0.0 | 0.0 | 0.00 | 0.00 | 0.00 | 77 | 1014.6 |
| 20260506102911 | 36 | 330 | 0.0 | 1.0 | 0.00 | 0.00 | 0.00 | 77 | 1014.5 |
| 20260506102409 | 36 | 328 | 0.0 | 0.0 | 0.00 | 0.00 | 0.00 | 78 | 1014.8 |
| 20260506101906 | 37 | 329 | 0.0 | 1.0 | 0.00 | 0.00 | 0.00 | 78 | 1014.8 |
| 20260506101402 | 37 | 326 | 1.0 | 1.0 | 0.00 | 0.00 | 0.00 | 78 | 1014.8 |
| 20260506100859 | 37 | 320 | 1.0 | 1.0 | 0.00 | 0.00 | 0.00 | 77 | 1014.6 |
| 20260506100358 | 37 | 314 | 2.0 | 2.0 | 0.00 | 0.00 | 0.00 | 77 | 1014.8 |
| 20260506095856 | 37 | 322 | 0.0 | 0.0 | 0.00 | 0.00 | 0.00 | 78 | 1014.6 |
| 20260506095354 | 37 | 329 | 1.0 | 1.0 | 0.00 | 0.00 | 0.00 | 79 | 1014.3 |
| 20260506094850 | 37 | 336 | 1.0 | 1.0 | 0.00 | 0.00 | 0.00 | 77 | 1014.3 |
| 20260506094349 | 38 | 326 | 1.0 | 1.0 | 0.00 | 0.00 | 0.00 | 76 | 1014.4 |
| 20260506093846 | 38 | 323 | 0.0 | 1.0 | 0.00 | 0.00 | 0.00 | 75 | 1014.3 |
| 20260506093343 | 38 | 316 | 1.0 | 1.0 | 0.00 | 0.00 | 0.00 | 77 | 1014.5 |
| 20260506092841 | 38 | 321 | 1.0 | 1.0 | 0.00 | 0.00 | 0.00 | 78 | 1014.3 |
| 20260506092339 | 37 | 321 | 1.0 | 1.0 | 0.00 | 0.00 | 0.00 | 78 | 1014.2 |
| 20260506091835 | 37 | 324 | 1.0 | 1.0 | 0.00 | 0.00 | 0.00 | 80 | 1014.2 |
| 20260506091333 | 37 | 332 | 1.0 | 1.0 | 0.00 | 0.00 | 0.00 | 80 | 1014.1 |
| 20260506090830 | 37 | 328 | 1.0 | 1.0 | 0.00 | 0.00 | 0.00 | 80 | 1014.2 |
| 20260506090328 | 38 | 320 | 1.0 | 1.0 | 0.00 | 0.00 | 0.00 | 80 | 1014.2 |
| 20260506085824 | 37 | 340 | 0.0 | 1.0 | 0.00 | 0.00 | 0.00 | 81 | 1014.1 |
| 20260506085320 | 37 | 337 | 0.0 | 0.0 | 0.00 | 0.00 | 0.00 | 83 | 1014.0 |
| 20260506084817 | 37 | 337 | 1.0 | 1.0 | 0.00 | 0.00 | 0.00 | 83 | 1014.2 |
| 20260506084314 | 37 | 337 | 1.0 | 1.0 | 0.00 | 0.00 | 0.00 | 85 | 1014.4 |
| 20260506083810 | 36 | 337 | 0.0 | 0.0 | 0.00 | 0.00 | 0.00 | 85 | 1014.3 |
| 20260506083308 | 37 | 337 | 0.0 | 0.0 | 0.00 | 0.00 | 0.00 | 84 | 1014.3 |
| 20260506082806 | 37 | 337 | 0.0 | 0.0 | 0.00 | 0.00 | 0.00 | 84 | 1014.5 |
| 20260506082304 | 37 | 337 | 1.0 | 1.0 | 0.00 | 0.00 | 0.00 | 84 | 1014.2 |
| 20260506081758 | 38 | 337 | 1.0 | 1.0 | 0.00 | 0.00 | 0.00 | 85 | 1014.3 |
| 20260506081256 | 38 | 335 | 1.0 | 1.0 | 0.00 | 0.00 | 0.00 | 85 | 1014.3 |
| 20260506080754 | 38 | 334 | 0.0 | 1.0 | 0.00 | 0.00 | 0.00 | 84 | 1014.4 |
| 20260506080250 | 38 | 334 | 0.0 | 1.0 | 0.00 | 0.00 | 0.00 | 83 | 1014.3 |
| 20260506073234 | 39 | 333 | 0.0 | 0.0 | 0.00 | 0.00 | 0.00 | 81 | 1014.0 |
| 20260506072731 | 39 | 332 | 0.0 | 0.0 | 0.00 | 0.00 | 0.00 | 81 | 1014.0 |
| 20260506072228 | 39 | 332 | 0.0 | 0.0 | 0.00 | 0.00 | 0.00 | 80 | 1013.9 |
| 20260506071726 | 39 | 333 | 0.0 | 0.0 | 0.00 | 0.00 | 0.00 | 80 | 1013.9 |
| 20260506071224 | 39 | 333 | 0.0 | 0.0 | 0.00 | 0.00 | 0.00 | 79 | 1013.6 |
| 20260506070720 | 39 | 333 | 0.0 | 1.0 | 0.00 | 0.00 | 0.00 | 79 | 1013.5 |
| 20260506070217 | 40 | 332 | 0.0 | 0.0 | 0.00 | 0.00 | 0.00 | 78 | 1013.4 |
| 20260506062154 | 42 | 336 | 0.0 | 0.0 | 0.00 | 0.00 | 0.00 | 70 | 1013.4 |
| 20260506061650 | 42 | 330 | 1.0 | 1.0 | 0.00 | 0.00 | 0.00 | 68 | 1013.5 |
| 20260506061148 | 43 | 324 | 1.0 | 1.0 | 0.00 | 0.00 | 0.00 | 68 | 1013.5 |
| 20260506060646 | 43 | 334 | 0.0 | 1.0 | 0.00 | 0.00 | 0.00 | 67 | 1013.2 |
| 20260506060143 | 43 | 334 | 0.0 | 1.0 | 0.00 | 0.00 | 0.00 | 65 | 1013.4 |
| 20260506051115 | 46 | 329 | 0.0 | 1.0 | 0.00 | 0.00 | 0.00 | 54 | 1013.3 |
| 20260506050613 | 47 | 326 | 1.0 | 1.0 | 0.00 | 0.00 | 0.00 | 53 | 1013.3 |
| 20260506050110 | 47 | 325 | 2.0 | 2.0 | 0.00 | 0.00 | 0.00 | 53 | 1013.2 |
| 20260506045103 | 47 | 328 | 1.0 | 1.0 | 0.00 | 0.00 | 0.00 | 53 | 1013.0 |
| 20260506044601 | 48 | 332 | 2.0 | 2.0 | 0.00 | 0.00 | 0.00 | 52 | 1013.1 |
| 20260506044058 | 48 | 337 | 1.0 | 1.0 | 0.00 | 0.00 | 0.00 | 52 | 1012.9 |
| 20260506043555 | 48 | 319 | 1.0 | 2.0 | 0.00 | 0.00 | 0.00 | 51 | 1012.8 |
| 20260506043053 | 48 | 341 | 2.0 | 2.0 | 0.00 | 0.00 | 0.00 | 51 | 1012.8 |
| 20260506042552 | 48 | 351 | 1.0 | 1.0 | 0.00 | 0.00 | 0.00 | 51 | 1012.8 |
| 20260506042049 | 48 | 359 | 2.0 | 3.0 | 0.00 | 0.00 | 0.00 | 51 | 1013.0 |
| 20260506041548 | 48 | 23 | 2.0 | 2.0 | 0.00 | 0.00 | 0.00 | 51 | 1013.1 |
| 20260506041044 | 48 | 350 | 2.0 | 3.0 | 0.00 | 0.00 | 0.00 | 51 | 1012.9 |
| 20260506040542 | 49 | 353 | 1.0 | 1.0 | 0.00 | 0.00 | 0.00 | 51 | 1013.1 |
| 20260506040038 | 49 | 20 | 2.0 | 2.0 | 0.00 | 0.00 | 0.00 | 51 | 1013.1 |
| 20260506035535 | 49 | 344 | 2.0 | 2.0 | 0.00 | 0.00 | 0.00 | 50 | 1013.0 |
| 20260506035032 | 49 | 325 | 1.0 | 1.0 | 0.00 | 0.00 | 0.00 | 49 | 1013.2 |
| 20260506034529 | 49 | 325 | 2.0 | 3.0 | 0.00 | 0.00 | 0.00 | 49 | 1012.9 |
| 20260506034026 | 49 | 330 | 2.0 | 3.0 | 0.00 | 0.00 | 0.00 | 50 | 1012.9 |
| 20260506033523 | 49 | 358 | 1.0 | 1.0 | 0.00 | 0.00 | 0.00 | 49 | 1012.9 |
| 20260506033021 | 50 | 334 | 1.0 | 2.0 | 0.00 | 0.00 | 0.00 | 49 | 1012.7 |
| 20260506032518 | 50 | 336 | 3.0 | 4.0 | 0.00 | 0.00 | 0.00 | 48 | 1012.8 |
| 20260506032014 | 50 | 331 | 1.0 | 2.0 | 0.00 | 0.00 | 0.00 | 48 | 1012.6 |
| 20260506031512 | 50 | 345 | 0.0 | 1.0 | 0.00 | 0.00 | 0.00 | 47 | 1012.7 |
| 20260506031009 | 50 | 322 | 2.0 | 2.0 | 0.00 | 0.00 | 0.00 | 47 | 1012.6 |
| 20260506030507 | 50 | 347 | 2.0 | 3.0 | 0.00 | 0.00 | 0.00 | 47 | 1012.6 |
| 20260506030004 | 50 | 19 | 1.0 | 1.0 | 0.00 | 0.00 | 0.00 | 47 | 1012.5 |
| 20260506025500 | 51 | 345 | 1.0 | 1.0 | 0.00 | 0.00 | 0.00 | 46 | 1012.4 |
| 20260506024957 | 51 | 18 | 1.0 | 1.0 | 0.00 | 0.00 | 0.00 | 46 | 1012.4 |
| 20260506024454 | 51 | 357 | 2.0 | 3.0 | 0.00 | 0.00 | 0.00 | 45 | 1012.3 |
| 20260506023949 | 51 | 344 | 2.0 | 2.0 | 0.00 | 0.00 | 0.00 | 45 | 1012.1 |
| 20260506023447 | 51 | 317 | 5.0 | 7.0 | 0.00 | 0.00 | 0.00 | 45 | 1012.2 |
| 20260506022943 | 51 | 345 | 2.0 | 3.0 | 0.00 | 0.00 | 0.00 | 45 | 1011.9 |
| 20260506022441 | 51 | 12 | 1.0 | 2.0 | 0.00 | 0.00 | 0.00 | 45 | 1012.0 |
| 20260506021939 | 52 | 347 | 2.0 | 2.0 | 0.00 | 0.00 | 0.00 | 45 | 1011.7 |
| 20260506021436 | 52 | 351 | 2.0 | 2.0 | 0.00 | 0.00 | 0.00 | 44 | 1011.7 |
| 20260506020933 | 52 | 352 | 3.0 | 3.0 | 0.00 | 0.00 | 0.00 | 43 | 1011.6 |
| 20260506020431 | 52 | 353 | 3.0 | 4.0 | 0.00 | 0.00 | 0.00 | 43 | 1011.6 |
| 20260506015927 | 52 | 19 | 4.0 | 4.0 | 0.00 | 0.00 | 0.00 | 43 | 1011.4 |
| 20260506015425 | 53 | 356 | 2.0 | 2.0 | 0.00 | 0.00 | 0.00 | 43 | 1011.2 |
| 20260506014922 | 53 | 11 | 4.0 | 4.0 | 0.00 | 0.00 | 0.00 | 43 | 1011.1 |
| 20260506014419 | 53 | 334 | 2.0 | 2.0 | 0.00 | 0.00 | 0.00 | 43 | 1011.1 |
| 20260506013915 | 53 | 345 | 2.0 | 2.0 | 0.00 | 0.00 | 0.00 | 42 | 1011.0 |
| 20260506013414 | 53 | 11 | 2.0 | 2.0 | 0.00 | 0.00 | 0.00 | 42 | 1010.9 |
| 20260506012909 | 53 | 335 | 1.0 | 2.0 | 0.00 | 0.00 | 0.00 | 42 | 1010.8 |
| 20260506012406 | 53 | 352 | 2.0 | 2.0 | 0.00 | 0.00 | 0.00 | 41 | 1010.8 |
| 20260506011903 | 53 | 14 | 2.0 | 3.0 | 0.00 | 0.00 | 0.00 | 41 | 1010.8 |
| 20260506011400 | 54 | 355 | 2.0 | 2.0 | 0.00 | 0.00 | 0.00 | 41 | 1010.6 |
| 20260506010857 | 54 | 355 | 1.0 | 1.0 | 0.00 | 0.00 | 0.00 | 40 | 1010.9 |
| 20260506010355 | 54 | 326 | 1.0 | 2.0 | 0.00 | 0.00 | 0.00 | 40 | 1010.7 |
| 20260506005852 | 54 | 328 | 1.0 | 1.0 | 0.00 | 0.00 | 0.00 | 39 | 1010.8 |
| 20260506005349 | 55 | 5 | 4.0 | 4.0 | 0.00 | 0.00 | 0.00 | 38 | 1010.6 |
| 20260506004844 | 55 | 8 | 5.0 | 7.0 | 0.00 | 0.00 | 0.00 | 38 | 1010.4 |
| 20260506004343 | 55 | 341 | 6.0 | 9.0 | 0.00 | 0.00 | 0.00 | 38 | 1010.4 |
| 20260506003838 | 55 | 346 | 6.0 | 7.0 | 0.00 | 0.00 | 0.00 | 38 | 1010.2 |
| 20260506003335 | 56 | 350 | 8.0 | 10.0 | 0.00 | 0.00 | 0.00 | 37 | 1010.3 |
| 20260506002831 | 56 | 345 | 5.0 | 8.0 | 0.00 | 0.00 | 0.00 | 37 | 1010.2 |
| 20260506002328 | 57 | 298 | 4.0 | 6.0 | 0.00 | 0.00 | 0.00 | 36 | 1009.8 |
| 20260506001823 | 57 | 331 | 3.0 | 3.0 | 0.00 | 0.00 | 0.00 | 36 | 1009.9 |
| 20260506001321 | 57 | 346 | 2.0 | 3.0 | 0.00 | 0.00 | 0.00 | 35 | 1010.1 |
| 20260506000818 | 57 | 299 | 4.0 | 4.0 | 0.00 | 0.00 | 0.00 | 35 | 1010.0 |
| 20260506000316 | 57 | 298 | 6.0 | 7.0 | 0.00 | 0.00 | 0.00 | 34 | 1010.0 |
| 20260505235812 | 58 | 357 | 4.0 | 6.0 | 0.00 | 0.00 | 0.00 | 34 | 1009.9 |
| 20260505235310 | 58 | 320 | 5.0 | 6.0 | 0.00 | 0.00 | 0.00 | 34 | 1009.8 |
| 20260505234806 | 58 | 260 | 2.0 | 3.0 | 0.00 | 0.00 | 0.00 | 33 | 1009.6 |
| 20260505234304 | 58 | 340 | 4.0 | 4.0 | 0.00 | 0.00 | 0.00 | 33 | 1009.7 |
| 20260505233801 | 58 | 318 | 4.0 | 4.0 | 0.00 | 0.00 | 0.00 | 33 | 1009.6 |
| 20260505233259 | 59 | 324 | 4.0 | 6.0 | 0.00 | 0.00 | 0.00 | 34 | 1009.7 |
| 20260505232755 | 58 | 295 | 4.0 | 6.0 | 0.00 | 0.00 | 0.00 | 34 | 1009.9 |
| 20260505232253 | 58 | 355 | 4.0 | 6.0 | 0.00 | 0.00 | 0.00 | 33 | 1009.7 |
| 20260505231749 | 58 | 336 | 4.0 | 6.0 | 0.00 | 0.00 | 0.00 | 33 | 1009.6 |
| 20260505231248 | 58 | 301 | 4.0 | 4.0 | 0.00 | 0.00 | 0.00 | 33 | 1009.8 |
| 20260505230746 | 58 | 323 | 6.0 | 8.0 | 0.00 | 0.00 | 0.00 | 34 | 1009.8 |
| 20260505230242 | 58 | 349 | 4.0 | 4.0 | 0.00 | 0.00 | 0.00 | 33 | 1009.9 |
| 20260505225739 | 58 | 307 | 6.0 | 7.0 | 0.00 | 0.00 | 0.00 | 34 | 1009.9 |
| 20260505225236 | 58 | 327 | 3.0 | 4.0 | 0.00 | 0.00 | 0.00 | 34 | 1009.8 |
| 20260505224731 | 58 | 334 | 3.0 | 3.0 | 0.00 | 0.00 | 0.00 | 33 | 1010.0 |
| 20260505224229 | 58 | 278 | 3.0 | 4.0 | 0.00 | 0.00 | 0.00 | 33 | 1009.8 |
| 20260505223727 | 58 | 279 | 3.0 | 4.0 | 0.00 | 0.00 | 0.00 | 33 | 1010.0 |
| 20260505223223 | 58 | 307 | 6.0 | 7.0 | 0.00 | 0.00 | 0.00 | 32 | 1010.0 |
| 20260505222719 | 58 | 309 | 2.0 | 3.0 | 0.00 | 0.00 | 0.00 | 32 | 1010.1 |
| 20260505222215 | 58 | 274 | 3.0 | 4.0 | 0.00 | 0.00 | 0.00 | 32 | 1010.0 |
| 20260505221713 | 58 | 347 | 3.0 | 3.0 | 0.00 | 0.00 | 0.00 | 32 | 1010.1 |
| 20260505221209 | 58 | 293 | 6.0 | 10.0 | 0.00 | 0.00 | 0.00 | 31 | 1010.2 |
| 20260505220706 | 58 | 313 | 7.0 | 8.0 | 0.00 | 0.00 | 0.00 | 32 | 1010.1 |
| 20260505220204 | 58 | 254 | 5.0 | 6.0 | 0.00 | 0.00 | 0.00 | 32 | 1010.3 |
| 20260505215701 | 58 | 321 | 4.0 | 6.0 | 0.00 | 0.00 | 0.00 | 32 | 1010.3 |
| 20260505215159 | 58 | 323 | 3.0 | 3.0 | 0.00 | 0.00 | 0.00 | 31 | 1010.3 |
| 20260505214657 | 58 | 355 | 2.0 | 3.0 | 0.00 | 0.00 | 0.00 | 31 | 1010.2 |
| 20260505214154 | 58 | 337 | 3.0 | 4.0 | 0.00 | 0.00 | 0.00 | 31 | 1010.3 |
| 20260505213651 | 58 | 293 | 6.0 | 7.0 | 0.00 | 0.00 | 0.00 | 32 | 1010.3 |
| 20260505213148 | 57 | 324 | 8.0 | 10.0 | 0.00 | 0.00 | 0.00 | 31 | 1010.4 |
| 20260505212644 | 58 | 345 | 6.0 | 9.0 | 0.00 | 0.00 | 0.00 | 32 | 1010.3 |
| 20260505212142 | 58 | 344 | 8.0 | 9.0 | 0.00 | 0.00 | 0.00 | 32 | 1010.6 |
| 20260505211638 | 58 | 328 | 7.0 | 8.0 | 0.00 | 0.00 | 0.00 | 32 | 1010.6 |
| 20260505211136 | 57 | 320 | 6.0 | 7.0 | 0.00 | 0.00 | 0.00 | 32 | 1010.5 |
| 20260505210632 | 58 | 292 | 8.0 | 11.0 | 0.00 | 0.00 | 0.00 | 33 | 1010.4 |
| 20260505210129 | 58 | 349 | 6.0 | 8.0 | 0.00 | 0.00 | 0.00 | 33 | 1010.4 |
| 20260505205626 | 58 | 336 | 8.0 | 9.0 | 0.00 | 0.00 | 0.00 | 32 | 1010.6 |
| 20260505205125 | 57 | 281 | 5.0 | 7.0 | 0.00 | 0.00 | 0.00 | 32 | 1010.7 |
| 20260505204621 | 59 | 311 | 5.0 | 7.0 | 0.00 | 0.00 | 0.00 | 31 | 1010.5 |
| 20260505204119 | 58 | 340 | 2.0 | 2.0 | 0.00 | 0.00 | 0.00 | 32 | 1010.4 |
| 20260505203615 | 58 | 303 | 9.0 | 13.0 | 0.00 | 0.00 | 0.00 | 31 | 1010.4 |
| 20260505203113 | 59 | 268 | 9.0 | 13.0 | 0.00 | 0.00 | 0.00 | 31 | 1010.5 |
| 20260505202608 | 59 | 313 | 5.0 | 9.0 | 0.00 | 0.00 | 0.00 | 31 | 1010.6 |
| 20260505202104 | 58 | 328 | 2.0 | 3.0 | 0.00 | 0.00 | 0.00 | 31 | 1010.8 |
| 20260505201601 | 58 | 340 | 7.0 | 9.0 | 0.00 | 0.00 | 0.00 | 32 | 1010.6 |
| 20260505201059 | 59 | 214 | 4.0 | 4.0 | 0.00 | 0.00 | 0.00 | 30 | 1010.9 |
| 20260505200557 | 59 | 330 | 7.0 | 8.0 | 0.00 | 0.00 | 0.00 | 31 | 1010.9 |
| 20260505200053 | 58 | 311 | 3.0 | 4.0 | 0.00 | 0.00 | 0.00 | 31 | 1010.9 |
| 20260505195549 | 57 | 312 | 4.0 | 4.0 | 0.00 | 0.00 | 0.00 | 31 | 1010.9 |
| 20260505195047 | 58 | 351 | 3.0 | 4.0 | 0.00 | 0.00 | 0.00 | 32 | 1011.0 |
| 20260505194544 | 57 | 318 | 10.0 | 11.0 | 0.00 | 0.00 | 0.00 | 32 | 1011.0 |
| 20260505194039 | 58 | 14 | 9.0 | 11.0 | 0.00 | 0.00 | 0.00 | 31 | 1011.1 |
| 20260505193537 | 57 | 349 | 9.0 | 11.0 | 0.00 | 0.00 | 0.00 | 33 | 1011.2 |
| 20260505193034 | 56 | 321 | 5.0 | 8.0 | 0.00 | 0.00 | 0.00 | 33 | 1011.4 |
| 20260505192532 | 56 | 333 | 6.0 | 9.0 | 0.00 | 0.00 | 0.00 | 33 | 1011.5 |
| 20260505192030 | 57 | 269 | 9.0 | 13.0 | 0.00 | 0.00 | 0.00 | 33 | 1011.7 |
| 20260505191528 | 57 | 304 | 2.0 | 3.0 | 0.00 | 0.00 | 0.00 | 33 | 1011.7 |
| 20260505191026 | 56 | 303 | 4.0 | 7.0 | 0.00 | 0.00 | 0.00 | 32 | 1011.9 |
| 20260505190520 | 57 | 259 | 7.0 | 9.0 | 0.00 | 0.00 | 0.00 | 32 | 1011.8 |
| 20260505190016 | 57 | 282 | 3.0 | 3.0 | 0.00 | 0.00 | 0.00 | 32 | 1011.9 |
| 20260505185513 | 57 | 336 | 4.0 | 7.0 | 0.00 | 0.00 | 0.00 | 33 | 1011.9 |
| 20260505185009 | 56 | 288 | 7.0 | 9.0 | 0.00 | 0.00 | 0.00 | 33 | 1011.8 |
| 20260505184506 | 57 | 239 | 6.0 | 9.0 | 0.00 | 0.00 | 0.00 | 31 | 1012.0 |
| 20260505184003 | 56 | 290 | 9.0 | 11.0 | 0.00 | 0.00 | 0.00 | 32 | 1012.2 |
| 20260505183500 | 56 | 276 | 5.0 | 8.0 | 0.00 | 0.00 | 0.00 | 32 | 1011.9 |
| 20260505182956 | 55 | 322 | 8.0 | 9.0 | 0.00 | 0.00 | 0.00 | 33 | 1011.9 |
| 20260505182453 | 56 | 346 | 3.0 | 6.0 | 0.00 | 0.00 | 0.00 | 31 | 1011.9 |
| 20260505181949 | 55 | 247 | 6.0 | 9.0 | 0.00 | 0.00 | 0.00 | 31 | 1012.0 |
| 20260505181447 | 56 | 291 | 4.0 | 6.0 | 0.00 | 0.00 | 0.00 | 31 | 1011.9 |
| 20260505180944 | 56 | 198 | 9.0 | 11.0 | 0.00 | 0.00 | 0.00 | 32 | 1012.0 |
| 20260505180440 | 56 | 280 | 6.0 | 7.0 | 0.00 | 0.00 | 0.00 | 32 | 1012.0 |
| 20260505175937 | 55 | 323 | 4.0 | 6.0 | 0.00 | 0.00 | 0.00 | 32 | 1011.9 |
| 20260505175433 | 55 | 218 | 6.0 | 7.0 | 0.00 | 0.00 | 0.00 | 31 | 1011.9 |
| 20260505174930 | 55 | 259 | 6.0 | 7.0 | 0.00 | 0.00 | 0.00 | 31 | 1012.1 |
| 20260505174427 | 55 | 289 | 4.0 | 7.0 | 0.00 | 0.00 | 0.00 | 32 | 1012.0 |
| 20260505173923 | 54 | 317 | 9.0 | 9.0 | 0.00 | 0.00 | 0.00 | 32 | 1012.1 |
| 20260505173420 | 55 | 303 | 9.0 | 10.0 | 0.00 | 0.00 | 0.00 | 32 | 1012.0 |
| 20260505172917 | 54 | 329 | 1.0 | 1.0 | 0.00 | 0.00 | 0.00 | 32 | 1012.2 |
| 20260505172415 | 53 | 315 | 2.0 | 3.0 | 0.00 | 0.00 | 0.00 | 33 | 1012.2 |
| 20260505171914 | 53 | 296 | 6.0 | 8.0 | 0.00 | 0.00 | 0.00 | 32 | 1012.1 |
| 20260505171411 | 54 | 316 | 11.0 | 11.0 | 0.00 | 0.00 | 0.00 | 33 | 1012.1 |
| 20260505170908 | 53 | 319 | 6.0 | 7.0 | 0.00 | 0.00 | 0.00 | 33 | 1012.3 |
| 20260505170405 | 53 | 336 | 9.0 | 11.0 | 0.00 | 0.00 | 0.00 | 33 | 1012.1 |
| 20260505165900 | 53 | 296 | 9.0 | 11.0 | 0.00 | 0.00 | 0.00 | 33 | 1011.7 |
| 20260505165356 | 54 | 287 | 6.0 | 8.0 | 0.00 | 0.00 | 0.00 | 33 | 1011.8 |
| 20260505164852 | 54 | 332 | 9.0 | 10.0 | 0.00 | 0.00 | 0.00 | 33 | 1012.0 |
| 20260505164348 | 54 | 12 | 4.0 | 6.0 | 0.00 | 0.00 | 0.00 | 31 | 1011.8 |
| 20260505163847 | 54 | 286 | 4.0 | 6.0 | 0.00 | 0.00 | 0.00 | 32 | 1012.0 |
| 20260505163346 | 53 | 317 | 6.0 | 8.0 | 0.00 | 0.00 | 0.00 | 32 | 1011.8 |
| 20260505162844 | 53 | 344 | 3.0 | 6.0 | 0.00 | 0.00 | 0.00 | 32 | 1011.8 |
| 20260505162339 | 53 | 315 | 5.0 | 6.0 | 0.00 | 0.00 | 0.00 | 33 | 1012.0 |
| 20260505161837 | 53 | 302 | 9.0 | 10.0 | 0.00 | 0.00 | 0.00 | 32 | 1012.0 |
| 20260505161334 | 53 | 328 | 6.0 | 9.0 | 0.00 | 0.00 | 0.00 | 32 | 1012.0 |
| 20260505160831 | 53 | 318 | 8.0 | 11.0 | 0.00 | 0.00 | 0.00 | 32 | 1011.9 |
| 20260505160329 | 53 | 303 | 4.0 | 6.0 | 0.00 | 0.00 | 0.00 | 32 | 1012.0 |
| 20260505153308 | 53 | 354 | 4.0 | 6.0 | 0.00 | 0.00 | 0.00 | 32 | 1011.5 |
| 20260505152805 | 52 | 316 | 2.0 | 4.0 | 0.00 | 0.00 | 0.00 | 32 | 1011.2 |
| 20260505152304 | 52 | 347 | 6.0 | 8.0 | 0.00 | 0.00 | 0.00 | 33 | 1011.5 |
| 20260505151755 | 52 | 311 | 6.0 | 7.0 | 0.00 | 0.00 | 0.00 | 32 | 1011.5 |
| 20260505151253 | 52 | 335 | 8.0 | 9.0 | 0.00 | 0.00 | 0.00 | 32 | 1011.4 |
| 20260505150750 | 53 | 327 | 4.0 | 4.0 | 0.00 | 0.00 | 0.00 | 32 | 1011.4 |